Regional Weather Roundup
Issued by NWS

Home | Current Version | Previous Version | Text Only | Print | Product List | Glossary Off
Versions: 1 2 3 4 5 6 7 8 9 10 11 12 13 14 15 16 17 18 19 20 21 22 23 24 25 26 27

000
ASUS45 KBOU 231607
RWRCO

WEATHER ROUNDUP FOR COLORADO
NATIONAL WEATHER SERVICE DENVER/BOULDER CO
1000 AM MDT MON OCT 23 2017

NOTE: "FAIR" INDICATES FEW OR NO CLOUDS BELOW 12000 FEET WITH NO
SIGNIFICANT WEATHER AND/OR OBSTRUCTIONS TO VISIBILITY.

COZ001>005-013-030-031-231700-
...NORTHWEST COLORADO...

CITY           SKY/WX    TMP DP  RH WIND       PRES   REMARKS
CRAIG          FAIR      53  31  42 W8        30.52R
HAYDEN         FAIR      50  31  48 W13       30.53R
MEEKER         FAIR      46  32  58 CALM      30.53R
RABBIT EARS PA CLOUDY    32  28  86 W13G25    30.55R WCI  22
STEAMBOAT SPGS FAIR      48  28  46 W22G29    30.49F
WALDEN         NOT AVBL
$$

COZ006>008-011-231700-
...WEST CENTRAL VALLEYS...

CITY           SKY/WX    TMP DP  RH WIND       PRES   REMARKS
GRAND JUNCTION FAIR      48  29  47 W6        30.50R
MONTROSE       FAIR      50  26  39 CALM      30.53S
EAGLE          FAIR      49  30  48 E9        30.53S
RIFLE          FAIR      45  32  60 CALM      30.53S
DELTA          FAIR      47  24  40 CALM      30.52R
NUCLA          FAIR      48  21  34 CALM      30.54S
$$

COZ017>023-064>068-231700-
...SOUTHWEST COLORADO...

CITY           SKY/WX    TMP DP  RH WIND       PRES   REMARKS
DURANGO        FAIR      45  25  45 E7        30.46S
CORTEZ         FAIR      54  25  32 CALM      30.46S
PAGOSA SPRINGS FAIR      47  21  36 CALM      30.49S
TELLURIDE      FAIR      48  24  39 W3        30.61S
WOLF CREEK PAS FAIR      36  23  60 NW10G16   30.70R
$$

COZ009-010-012-014-032>034-037-058>063-231700-
...CENTRAL COLORADO...

CITY           SKY/WX    TMP DP  RH WIND       PRES   REMARKS
ASPEN          FAIR      44  29  55 S6        30.55R
BUENA VISTA    FAIR      54  23  30 N9        30.47S
COPPER MTN     CLOUDY    34  27  75 NW20G26   30.63S WCI  22
BERTHOUD PASS  FAIR      27  16  63 NW48G62   30.55R WCI   7
COTTONWOOD PAS FAIR      50  27  40 W17G26    30.54R
GUNNISON       FAIR      44  25  47 CALM      30.55R
KREMMLING      PTSUNNY   55  28  35 W12G18    30.53S
LEADVILLE      PTSUNNY   42  22  44 NW14G23   30.57R
MONARCH PASS   FAIR      32  23  69 W22G28    30.72S WCI  19
SALIDA         FAIR      55  26  32 N5        30.53F
SUNLIGHT       FAIR      34  21  60 W6        30.68S WCI  29
WILKERSON PASS FAIR      37  21  52 W7G16     30.59S
$$

COZ069>075-231700-
...SAN LUIS VALLEY/SANGRE DE CRISTO MOUNTAINS...

CITY           SKY/WX    TMP DP  RH WIND       PRES   REMARKS
ALAMOSA        FAIR      49  23  36 W3        30.50S
DEL NORTE      FAIR      49  22  35 S3        30.51S
LA VETA PASS   FAIR      45  25  45 SW16G24   30.67R
SAGUACHE       FAIR      54  27  35 N10       30.50F
$$

COZ035-036-038>040-231700-
...NORTHERN COLORADO FRONT RANGE...

CITY           SKY/WX    TMP DP  RH WIND       PRES   REMARKS
DENVER INTL AP PTSUNNY   40  29  64 E9        30.47F
DMNS CITY PARK   N/A     41  30  63 E12G24    30.47F
AURORA         PTSUNNY   40  30  69 E12       30.48F
FRONT RANGE AP PTSUNNY   41  30  65 NE10      30.49R
ERIE MUNI ARPT CLOUDY    42  32  67 SE10      30.53S
BOULDER MUN AP CLOUDY    41  32  70 SE10      30.45F
CENTENNIAL     CLOUDY    39  30  70 N5        30.48R
BROOMFIELD     CLOUDY    41  32  70 E12       30.47F
FORT COLLINS   CLOUDY    44  31  60 E6        30.46S
LONGMONT       CLOUDY    44  34  67 SE7       30.48F
$$

COZ041-046-047-076>085-087-088-231700-
...PIKES PEAK/PALMER DIVIDE AND SOUTHERN FOOTHILLS...

CITY           SKY/WX    TMP DP  RH WIND       PRES   REMARKS
COLO. SPRINGS  PTSUNNY   47  33  58 N18       30.43R
A. F. ACADEMY  PTSUNNY   41  31  68 N25G31    30.43R
SCHRIEVER AFB  FAIR      42  31  62 N23G31    30.42R
CHEYENNE MTN   FAIR      42  31  64 N14       30.37R
ELLICOTT         N/A    N/A N/A N/A NE25G33   30.42R
FALCON         FAIR      39  30  70 N21G32    30.44R
FORT CARSON    FAIR      46  33  60 NE5       30.42R
LIMON          PTSUNNY   43  28  55 N18G31    30.47R
MONUMENT HILL  CLOUDY    32  30  93 NE10      30.50R WCI  24
CANON CITY     SUNNY     66  30  26 W8        30.37R
WALSENBURG     FAIR      59  30  33 E24G32    30.41R
TRINIDAD       FAIR      58  27  30 NE22G29   30.40R
$$

COZ042>045-048>051-090-091-231700-
...NORTHEAST COLORADO...

CITY           SKY/WX    TMP DP  RH WIND       PRES   REMARKS
GREELEY ARPT   FAIR      48  28  46 NW14      30.46R
AKRON          FAIR      46  26  45 N24       30.39R
BURLINGTON     PTSUNNY   50  28  42 N23G38    30.36R
WRAY           NOT AVBL
YUMA           NOT AVBL
STERLING       NOT AVBL
HOLYOKE        FAIR      54  23  30 NW21G30   30.34S
FORT MORGAN    PTSUNNY   49  22  34 N10       30.43R
$$

COZ086-089-092>099-231700-
...SOUTHEAST COLORADO...

CITY           SKY/WX    TMP DP  RH WIND       PRES   REMARKS
PUEBLO         FAIR      52  34  50 E17       30.42R
LA JUNTA       FAIR      53  32  44 NE17G30   30.42R
LAMAR          FAIR      56  29  35 N22G30    30.37R
SPRINGFIELD    NOT AVBL
$$




USA.gov is the U.S. government's official web portal to all federal, state and local government web resources and services.